Location: Colebrook
(42.0017°N, 73.0973°W)
Time: 06:14:14
(UTC-04:00)

Amateur Radio Satellites - All Passes

Search period start: 28 September 2016 05:44
Search period end: 29 September 2016 05:44
Location: Colebrook, 42.0017°N, 73.0973°W

Satellite Date Start Highest point End Downlink Frequencies (MHz)
Time Altitude Azimuth
STRAND 1 28 Sep 05:46:06 05:48:05 12° 58° (ENE) 05:50:04 437.568
PCSat 28 Sep 05:46:16 05:51:13 36° 309° (NW) 05:56:14 145.827
ITAMSAT 1 28 Sep 05:47:05 05:49:24 13° 302° (WNW) 05:51:44 435.822/435.867
NOAA 15 28 Sep 05:50:38 05:53:34 15° 90° (E) 05:56:29 137.62
STARS 28 Sep 05:54:54 05:57:06 14° 269° (W) 05:59:18 437.465
AO-7 28 Sep 05:56:13 06:03:55 45° 299° (WNW) 06:11:37 29.400- 29.500
Cubesat XI-IV 28 Sep 06:06:49 06:10:20 17° 91° (E) 06:13:50 437.490
CUTE-I 28 Sep 06:06:54 06:10:27 18° 91° (E) 06:13:59 437.470
Cosmos 2504 28 Sep 06:11:19 06:16:37 21° 294° (WNW) 06:21:51 435.465 / 435.565
CUBESAT XI-V 28 Sep 06:15:46 06:19:24 22° 267° (W) 06:23:04 437.345
GOMX 1 28 Sep 06:28:30 06:32:21 29° 95° (E) 06:36:02 467.674
HORYU 2 28 Sep 06:29:45 06:34:08 60° 287° (WNW) 06:38:32 437.375
BRITE-PL 28 Sep 06:39:39 06:44:31 83° 283° (WNW) 06:48:59 437.365/2234.400
NOAA 18 28 Sep 06:48:28 06:53:23 33° 97° (E) 06:58:17 137.9125
DOVE 4 28 Sep 06:49:22 06:52:26 20° 93° (E) 06:55:28 437.250
DANDE 28 Sep 07:01:08 07:09:36 78° 80° (E) 07:17:26 436.750
AIST 1 28 Sep 07:01:28 07:03:13 12° 292° (WNW) 07:05:00
CUSAT 1 28 Sep 07:12:24 07:19:34 43° 271° (W) 07:25:38 437.405
LilacSat-2 28 Sep 07:13:35 07:17:27 90° 283° (WNW) 07:21:18 437.200
AO-85 28 Sep 07:15:27 07:18:15 18° 250° (WSW) 07:20:57 145.980
O/OREOS (USA 219) 28 Sep 07:16:30 07:20:57 56° 108° (ESE) 07:25:27 437.305
STRAND 1 28 Sep 07:21:23 07:26:28 89° 104° (ESE) 07:31:38 437.568
RS-15 28 Sep 07:25:55 07:35:27 28° 259° (W) 07:44:50 29.354- 29.394
NOAA 15 28 Sep 07:28:34 07:33:51 70° 286° (WNW) 07:39:05 137.62
Cosmos 2499 28 Sep 07:29:40 07:33:05 14° 78° (ENE) 07:36:27 435.465 / 435.565
PRISM 28 Sep 07:35:50 07:37:17 12° 62° (ENE) 07:38:44 437.425
Cubesat XI-IV 28 Sep 07:45:31 07:50:48 61° 288° (WNW) 07:56:04 437.490
CUTE-I 28 Sep 07:45:36 07:50:53 60° 288° (WNW) 07:56:08 437.470
GONETS M04 28 Sep 07:47:54 07:55:13 30° 83° (E) 08:02:33
AO-7 28 Sep 07:53:20 07:54:33 10° 321° (NW) 07:55:45 29.400- 29.500
CINEMA 3 28 Sep 07:59:06 08:02:47 29° 96° (E) 08:06:30 145.822/145.860
GOMX 1 28 Sep 08:06:46 08:10:21 24° 293° (WNW) 08:13:46 467.674
CUTE 1.7 + AOD 2 28 Sep 08:11:44 08:15:32 30° 96° (E) 08:19:19 437.475
CANX-2 28 Sep 08:12:54 08:16:53 35° 97° (E) 08:20:51 2200.000
SEEDS 28 Sep 08:13:05 08:16:24 22° 94° (E) 08:19:41 437.485
DOVE 4 28 Sep 08:26:30 08:30:17 33° 290° (WNW) 08:33:59 437.250
NOAA 18 28 Sep 08:29:08 08:34:00 34° 294° (WNW) 08:38:52 137.9125
AAUSAT CUBESAT 2 28 Sep 08:35:03 08:38:10 20° 93° (E) 08:41:16 437.432
HO-68 28 Sep 08:37:38 08:44:41 58° 102° (ESE) 08:51:42 435.675
BEESAT 2 28 Sep 08:44:50 08:46:08 11° 37° (NE) 08:47:26 435.950
DANDE 28 Sep 08:45:12 08:51:29 24° 278° (W) 08:57:30 436.750
O/OREOS (USA 219) 28 Sep 08:57:43 09:00:44 17° 307° (NW) 09:03:46 437.305
TIGRISAT 28 Sep 09:02:15 09:03:54 12° 62° (ENE) 09:05:34 435.000
CUBEBUG 2 28 Sep 09:04:29 09:08:34 42° 99° (E) 09:12:45 437.445
STRAND 1 28 Sep 09:05:41 09:06:20 10° 272° (W) 09:07:01 437.568
PRISM 28 Sep 09:07:52 09:12:01 68° 258° (WSW) 09:16:12 437.425
FUNcube-1 28 Sep 09:09:11 09:12:16 19° 93° (E) 09:15:24 145.935
Cosmos 2499 28 Sep 09:17:54 09:25:04 89° 270° (W) 09:32:10 435.465 / 435.565
COMPASS 1 28 Sep 09:18:48 09:23:03 81° 101° (E) 09:27:16 437.405
UWE-3 28 Sep 09:21:56 09:26:04 43° 99° (E) 09:30:17 435.000/436.395/437.385
BEESAT 3 28 Sep 09:24:30 09:28:16 40° 52° (NE) 09:32:01 437.485
CINEMA 3 28 Sep 09:36:29 09:39:49 23° 292° (WNW) 09:43:10 145.822/145.860
UNISAT 6 28 Sep 09:40:30 09:44:17 32° 70° (ENE) 09:48:06 437.425
GONETS M04 28 Sep 09:42:45 09:51:27 60° 283° (WNW) 10:00:14
CUTE 1.7 + AOD 2 28 Sep 09:47:45 09:51:14 24° 292° (WNW) 09:54:43 437.475
Oscar 11 28 Sep 09:48:01 09:52:17 51° 99° (E) 09:56:30 145.826/435.025
SEEDS 28 Sep 09:48:19 09:52:09 33° 290° (WNW) 09:55:56 437.485
CANX-2 28 Sep 09:49:16 09:52:31 21° 293° (WNW) 09:55:44 2200.000
ZACube-1 28 Sep 09:50:30 09:54:46 57° 100° (E) 09:59:08 437.345
DELFI C3 28 Sep 09:52:20 09:55:27 21° 94° (E) 09:58:33 145.870
HUMSAT D 28 Sep 10:08:56 10:11:49 17° 93° (E) 10:14:41 437.325/437.525
AAUSAT CUBESAT 2 28 Sep 10:09:55 10:13:44 34° 289° (WNW) 10:17:31 437.432
QB50P2 28 Sep 10:11:37 10:11:43 10° 61° (ENE) 10:11:50 145.880/145.840
PHONESAT 2.4 28 Sep 10:12:07 10:13:42 14° 151° (SSE) 10:15:17 2401.200-2431.200
ANTELSAT 28 Sep 10:15:20 10:19:36 78° 76° (ENE) 10:23:52 437.575/2403.000
BEESAT 2 28 Sep 10:20:36 10:24:38 78° 57° (ENE) 10:28:38 435.950
HO-68 28 Sep 10:26:02 10:31:59 29° 300° (WNW) 10:37:54 435.675
TIGRISAT 28 Sep 10:35:50 10:40:04 65° 259° (W) 10:44:17 435.000
CUBEBUG 2 28 Sep 10:41:59 10:44:54 18° 294° (WNW) 10:47:52 437.445
FUNcube-1 28 Sep 10:44:36 10:48:38 39° 288° (WNW) 10:52:45 145.935
DUCHIFAT 1 28 Sep 10:47:55 10:51:02 21° 66° (ENE) 10:54:09 145.980
QB50P1 28 Sep 10:50:08 10:53:34 25° 68° (ENE) 10:57:00 145.935-145.965
UWE-3 28 Sep 10:59:18 11:02:13 18° 294° (WNW) 11:05:11 435.000/436.395/437.385
JAS-2 28 Sep 11:00:00 11:05:53 35° 63° (ENE) 11:12:24 435.910
BEESAT 3 28 Sep 11:02:51 11:05:38 19° 248° (WSW) 11:08:25 437.485
POPSAT HIP 1 28 Sep 11:03:16 11:07:03 33° 70° (ENE) 11:10:50 437.405
AIST 2 28 Sep 11:09:41 11:11:54 14° 39° (NE) 11:14:07 435.215
Cosmos 2499 28 Sep 11:15:21 11:19:16 15° 298° (WNW) 11:23:12 435.465 / 435.565
UNISAT 6 28 Sep 11:17:46 11:21:04 22° 266° (W) 11:24:23 437.425
NANOSAT C BR1 28 Sep 11:19:00 11:23:02 48° 73° (ENE) 11:27:04 145.865
Oscar 11 28 Sep 11:25:22 11:27:59 16° 296° (WNW) 11:30:38 145.826/435.025
DELFI C3 28 Sep 11:26:47 11:30:18 29° 290° (WNW) 11:33:46 145.870
ZACube-1 28 Sep 11:28:17 11:30:37 14° 296° (WNW) 11:32:59 437.345
QB50P2 28 Sep 11:42:40 11:46:53 80° 258° (WSW) 11:51:06 145.880/145.840
HUMSAT D 28 Sep 11:43:35 11:47:34 41° 289° (WNW) 11:51:36 437.325/437.525
POLYITAN 1 28 Sep 11:44:54 11:49:05 80° 256° (WSW) 11:53:18 437.675
AISAT 28 Sep 11:45:45 11:48:23 15° 92° (E) 11:51:00 437.250
PHONESAT 2.4 28 Sep 11:46:33 11:49:22 44° 167° (SSE) 11:52:12 2401.200-2431.200
GONETS M04 28 Sep 11:47:23 11:50:28 12° 306° (NW) 11:53:34
Gurwin Techsat 1B 28 Sep 12:18:12 12:18:29 10° 56° (NE) 12:18:46 435.225
DX 1 28 Sep 12:19:04 12:22:21 21° 94° (E) 12:25:36 434.975-435.025
BUGSAT 1 28 Sep 12:22:42 12:26:48 84° 257° (WSW) 12:30:54 437.445
DUCHIFAT 1 28 Sep 12:22:42 12:26:31 34° 263° (W) 12:30:20 145.980
QB50P1 28 Sep 12:25:36 12:29:13 28° 264° (W) 12:32:52 145.935-145.965
VELOX 1 28 Sep 12:28:07 12:32:18 42° 99° (E) 12:36:27 145.980
ESTCUBE 1 28 Sep 12:30:38 12:35:11 87° 289° (WNW) 12:39:43 437.505/2401.250
CUBEBUG 1 28 Sep 12:31:02 12:35:20 60° 101° (E) 12:39:35 437.445
POPSAT HIP 1 28 Sep 12:39:44 12:42:54 20° 266° (W) 12:46:04 437.405
JAS-2 28 Sep 12:44:32 12:50:41 45° 264° (W) 12:57:38 435.910
AIST 2 28 Sep 12:46:44 12:50:58 86° 235° (SW) 12:55:09 435.215
50 SAT 28 Sep 12:47:16 12:50:57 72° 101° (ESE) 12:54:35 437.505
PCSat 28 Sep 12:50:06 12:54:59 33° 50° (NE) 12:59:50 145.827
Oscar 19 28 Sep 12:50:40 12:55:29 40° 69° (ENE) 13:00:19 437.125/150
NANOSAT C BR1 28 Sep 12:56:43 12:59:02 14° 269° (W) 13:01:20 145.865
M-CUBED/EXP-1 PRIME 28 Sep 12:57:31 13:00:36 38° 104° (ESE) 13:03:41 437.505
SPROUT 28 Sep 13:09:32 13:13:47 69° 102° (ESE) 13:18:01 437.525
AO-7 28 Sep 13:15:19 13:19:28 15° 45° (NE) 13:23:37 29.400- 29.500
AISAT 28 Sep 13:20:52 13:25:07 48° 288° (WNW) 13:29:20 437.250
PHONESAT 2.4 28 Sep 13:22:26 13:25:21 64° 183° (S) 13:28:16 2401.200-2431.200
UKube-1 28 Sep 13:24:40 13:29:00 84° 103° (ESE) 13:33:18 .
Cosmos 2491 28 Sep 13:32:54 13:38:41 20° 78° (ENE) 13:44:29 435.465 / 435.565
YUBILEINY 28 Sep 13:33:49 13:41:59 42° 73° (ENE) 13:50:05 435.215
ITAMSAT 1 28 Sep 13:46:29 13:50:01 19° 62° (ENE) 13:53:35 435.822/435.867
Gurwin Techsat 1B 28 Sep 13:52:11 13:57:27 71° 74° (ENE) 14:02:46 435.225
AUBIESAT-1 28 Sep 13:54:02 13:57:11 41° 292° (WNW) 14:00:19 437.475
DX 1 28 Sep 13:54:40 13:58:37 35° 290° (WNW) 14:02:34 434.975-435.025
VELOX 1 28 Sep 14:05:21 14:08:27 19° 295° (WNW) 14:11:33 145.980
Cosmos 2504 28 Sep 14:06:46 14:12:42 25° 68° (ENE) 14:18:53 435.465 / 435.565
CUBEBUG 1 28 Sep 14:08:58 14:11:06 14° 298° (WNW) 14:13:14 437.445
SO-50 28 Sep 14:09:18 14:12:01 15° 109° (ESE) 14:14:43 436.795
TISAT 1 28 Sep 14:27:55 14:32:06 82° 284° (WNW) 14:36:16 437.305
Oscar 19 28 Sep 14:30:38 14:34:55 26° 266° (W) 14:39:13 437.125/150
PCSat 28 Sep 14:33:25 14:38:26 39° 249° (WSW) 14:43:25 145.827
M-CUBED/EXP-1 PRIME 28 Sep 14:33:34 14:34:50 12° 301° (WNW) 14:36:06 437.505
SPROUT 28 Sep 14:47:37 14:49:09 12° 298° (WNW) 14:50:40 437.525
PHONESAT 2.4 28 Sep 14:58:36 15:01:15 30° 200° (SSW) 15:03:54 2401.200-2431.200
AO-7 28 Sep 15:02:28 15:10:36 62° 66° (ENE) 15:18:44 29.400- 29.500
ITUPSAT 1 28 Sep 15:02:44 15:07:17 41° 98° (E) 15:11:49 437.325
UKube-1 28 Sep 15:04:16 15:04:21 10° 300° (WNW) 15:04:27 .
SWISSCUBE 28 Sep 15:15:21 15:20:08 63° 102° (ESE) 15:24:54 437.505
ITAMSAT 1 28 Sep 15:23:57 15:29:01 58° 259° (WSW) 15:34:10 435.822/435.867
Cosmos 2491 28 Sep 15:25:30 15:34:19 85° 278° (W) 15:43:13 435.465 / 435.565
BEESAT 28 Sep 15:28:15 15:33:04 77° 102° (ESE) 15:37:51 436.000
AIST 1 28 Sep 15:28:35 15:31:16 16° 70° (ENE) 15:33:56
YUBILEINY 28 Sep 15:30:44 15:38:45 43° 273° (W) 15:46:45 435.215
Gurwin Techsat 1B 28 Sep 15:35:03 15:37:55 15° 270° (W) 15:40:49 435.225
SO-50 28 Sep 15:47:08 15:51:57 69° 305° (NW) 15:56:45 436.795
O/OREOS (USA 219) 28 Sep 15:48:13 15:50:44 14° 51° (NE) 15:53:15 437.305
HORYU 2 28 Sep 15:53:55 15:56:09 14° 62° (ENE) 15:58:23 437.375
Cosmos 2504 28 Sep 15:59:14 16:06:34 64° 267° (W) 16:14:24 435.465 / 435.565
BRITE-PL 28 Sep 16:13:28 16:17:01 17° 62° (ENE) 16:20:31 437.365/2234.400
ITUPSAT 1 28 Sep 16:41:08 16:44:52 23° 295° (WNW) 16:48:34 437.325
MOZHAYETS 4 28 Sep 16:48:52 16:53:32 86° 286° (WNW) 16:58:12
SWISSCUBE 28 Sep 16:54:35 16:57:24 16° 298° (WNW) 17:00:13 437.505
AO-7 28 Sep 16:56:43 17:03:47 30° 264° (W) 17:10:54 29.400- 29.500
AIST 1 28 Sep 17:05:02 17:09:06 42° 268° (W) 17:13:07
BEESAT 28 Sep 17:08:00 17:10:12 13° 300° (WNW) 17:12:24 436.000
KKS-1 28 Sep 17:09:23 17:13:49 83° 287° (WNW) 17:18:14 437.445
NOAA 15 28 Sep 17:10:28 17:14:48 26° 65° (ENE) 17:19:10 137.62
O/OREOS (USA 219) 28 Sep 17:26:04 17:30:41 71° 250° (WSW) 17:35:13 437.305
Cosmos 2491 28 Sep 17:26:51 17:32:36 19° 300° (WNW) 17:38:23 435.465 / 435.565
HORYU 2 28 Sep 17:27:50 17:32:11 62° 258° (WSW) 17:36:35 437.375
CUTE-I 28 Sep 17:28:46 17:33:21 31° 66° (ENE) 17:37:58 437.470
Cubesat XI-IV 28 Sep 17:28:51 17:33:26 31° 66° (ENE) 17:38:02 437.490
SO-50 28 Sep 17:30:57 17:33:17 13° 325° (NW) 17:35:38 436.795
GOMX 1 28 Sep 17:35:45 17:40:42 39° 71° (ENE) 17:45:27 467.674
STARS 28 Sep 17:41:07 17:45:30 79° 285° (WNW) 17:49:51 437.465
BRITE-PL 28 Sep 17:49:10 17:54:51 76° 258° (WSW) 18:00:28 437.365/2234.400
DOVE 4 28 Sep 17:54:33 17:58:36 26° 68° (ENE) 18:02:28 437.250
LilacSat-2 28 Sep 17:55:46 17:59:21 44° 73° (ENE) 18:02:58 437.200
GONETS M04 28 Sep 17:57:59 18:02:39 15° 57° (ENE) 18:07:15
CUBESAT XI-V 28 Sep 18:10:31 18:15:15 90° 299° (WNW) 18:19:54 437.345
NOAA 18 28 Sep 18:15:02 18:20:27 66° 72° (ENE) 18:25:52 137.9125
CUSAT 1 28 Sep 18:31:03 18:36:43 35° 86° (E) 18:43:24 437.405
DANDE 28 Sep 18:32:13 18:33:18 10° 73° (ENE) 18:34:26 436.750
NOAA 15 28 Sep 18:49:21 18:54:21 42° 261° (W) 18:59:24 137.62
CINEMA 3 28 Sep 19:01:08 19:04:59 29° 70° (ENE) 19:08:43 145.822/145.860
CUTE 1.7 + AOD 2 28 Sep 19:05:03 19:08:21 23° 67° (ENE) 19:11:43 437.475
SEEDS 28 Sep 19:05:48 19:08:28 17° 65° (ENE) 19:11:09 437.485
CANX-2 28 Sep 19:06:10 19:09:43 27° 69° (ENE) 19:13:19 2200.000
HO-68 28 Sep 19:06:31 19:13:13 45° 65° (ENE) 19:19:56 435.675
Cosmos 2499 28 Sep 19:07:27 19:14:08 33° 72° (ENE) 19:21:13 435.465 / 435.565
ISS 28 Sep 19:08:28 19:09:44 12° 130° (SE) 19:11:00 145.825
CUTE-I 28 Sep 19:08:29 19:13:18 35° 263° (W) 19:18:09 437.470
Cubesat XI-IV 28 Sep 19:08:34 19:13:24 35° 263° (W) 19:18:16 437.490
GOMX 1 28 Sep 19:14:18 19:18:49 27° 265° (W) 19:23:12 467.674
AAUSAT CUBESAT 2 28 Sep 19:26:25 19:28:47 15° 64° (ENE) 19:31:10 437.432
DOVE 4 28 Sep 19:31:31 19:36:08 36° 263° (W) 19:40:32 437.250
STRAND 1 28 Sep 19:31:50 19:36:20 30° 96° (E) 19:40:48 437.568
LilacSat-2 28 Sep 19:32:15 19:33:54 12° 269° (W) 19:35:32 437.200
RS-15 28 Sep 19:34:58 19:46:00 54° 111° (ESE) 19:57:35 29.354- 29.394
AO-85 28 Sep 19:49:57 19:52:52 15° 109° (ESE) 19:55:42 145.980
CUBESAT XI-V 28 Sep 19:50:52 19:51:51 11° 301° (WNW) 19:52:51 437.345
GONETS M04 28 Sep 19:52:26 20:01:17 72° 80° (E) 20:09:59
NOAA 18 28 Sep 19:58:10 20:01:34 17° 269° (W) 20:04:58 137.9125
CUBEBUG 2 28 Sep 20:03:09 20:06:58 35° 71° (ENE) 20:10:46 437.445
FUNcube-1 28 Sep 20:06:01 20:08:24 15° 64° (ENE) 20:10:47 145.935
DANDE 28 Sep 20:09:07 20:14:17 79° 96° (E) 20:21:13 436.750
COMPASS 1 28 Sep 20:09:30 20:13:35 55° 74° (ENE) 20:17:42 437.405
CUSAT 1 28 Sep 20:12:22 20:18:28 45° 289° (WNW) 20:25:49 437.405
UWE-3 28 Sep 20:19:30 20:23:17 35° 71° (ENE) 20:27:03 435.000/436.395/437.385
CINEMA 3 28 Sep 20:38:25 20:42:06 25° 265° (W) 20:45:41 145.822/145.860
DELFI C3 28 Sep 20:39:26 20:41:36 14° 64° (ENE) 20:43:46 145.870
SEEDS 28 Sep 20:39:46 20:43:48 45° 262° (W) 20:47:53 437.485
CUTE 1.7 + AOD 2 28 Sep 20:40:15 20:44:01 31° 263° (W) 20:47:51 437.475
CANX-2 28 Sep 20:41:56 20:45:31 26° 265° (W) 20:49:08 2200.000
ISS 28 Sep 20:42:31 20:45:46 81° 326° (NW) 20:49:03 145.825
Oscar 11 28 Sep 20:42:58 20:47:00 40° 71° (ENE) 20:51:03 145.826/435.025
ZACube-1 28 Sep 20:46:44 20:50:39 44° 72° (ENE) 20:54:36 437.345
PRISM 28 Sep 20:50:13 20:52:41 15° 92° (E) 20:55:08 437.425
HO-68 28 Sep 20:54:31 21:00:59 36° 263° (W) 21:07:31 435.675
AAUSAT CUBESAT 2 28 Sep 20:59:48 21:03:50 50° 261° (W) 21:07:55 437.432
Cosmos 2499 28 Sep 21:00:12 21:07:27 51° 269° (W) 21:15:15 435.465 / 435.565
HUMSAT D 28 Sep 21:01:44 21:03:37 13° 63° (ENE) 21:05:31 437.325/437.525
STRAND 1 28 Sep 21:10:53 21:15:30 34° 292° (WNW) 21:20:07 437.568
AO-85 28 Sep 21:27:38 21:32:51 75° 304° (WNW) 21:37:43 145.980
FUNcube-1 28 Sep 21:40:17 21:44:15 47° 261° (W) 21:48:16 145.935
CUBEBUG 2 28 Sep 21:40:44 21:43:42 19° 267° (W) 21:46:40 437.445
RS-15 28 Sep 21:47:14 21:58:36 53° 316° (NW) 22:10:34 29.354- 29.394
COMPASS 1 28 Sep 21:47:39 21:49:28 13° 270° (W) 21:51:18 437.405
GONETS M04 28 Sep 21:50:35 21:57:11 25° 280° (W) 22:03:46
DANDE 28 Sep 21:54:29 21:58:18 18° 303° (WNW) 22:02:43 436.750
UWE-3 28 Sep 21:56:54 21:59:52 19° 267° (W) 22:02:49 435.000/436.395/437.385
ANTELSAT 28 Sep 22:07:27 22:10:11 16° 92° (E) 22:12:56 437.575/2403.000
DELFI C3 28 Sep 22:12:09 22:16:01 48° 261° (W) 22:19:56 145.870
ISS 28 Sep 22:20:09 22:22:40 20° 345° (NNW) 22:25:12 145.825
Oscar 11 28 Sep 22:20:20 22:23:17 18° 268° (W) 22:26:17 145.826/435.025
PRISM 28 Sep 22:24:17 22:28:13 43° 289° (WNW) 22:32:06 437.425
ZACube-1 28 Sep 22:24:49 22:27:11 15° 269° (W) 22:29:35 437.345
TIGRISAT 28 Sep 22:27:00 22:30:36 24° 95° (E) 22:34:16 435.000
HUMSAT D 28 Sep 22:34:45 22:38:45 56° 260° (W) 22:42:49 437.325/437.525
SO-50 28 Sep 22:38:49 22:42:01 18° 40° (NE) 22:45:09 436.795
AISAT 28 Sep 22:43:45 22:46:26 16° 63° (ENE) 22:49:09 437.250
AUBIESAT-1 28 Sep 23:06:39 23:09:28 19° 63° (ENE) 23:12:10 437.475
UNISAT 6 28 Sep 23:07:21 23:11:47 71° 102° (ESE) 23:16:17 437.425
AO-85 28 Sep 23:11:19 23:14:02 14° 322° (NW) 23:16:40 145.980
DX 1 28 Sep 23:15:08 23:18:20 20° 65° (ENE) 23:21:33 434.975-435.025
50 SAT 28 Sep 23:24:15 23:27:28 31° 71° (ENE) 23:30:45 437.505
VELOX 1 28 Sep 23:25:32 23:29:41 39° 70° (ENE) 23:33:50 145.980
CUBEBUG 1 28 Sep 23:26:57 23:31:15 52° 73° (ENE) 23:35:32 437.445
QB50P2 28 Sep 23:28:18 23:30:55 16° 92° (E) 23:33:32 145.880/145.840
ESTCUBE 1 28 Sep 23:30:06 23:34:38 89° 79° (E) 23:39:13 437.505/2401.250
POLYITAN 1 28 Sep 23:30:30 23:33:06 16° 92° (E) 23:35:44 437.675
ANTELSAT 28 Sep 23:42:52 23:47:08 49° 287° (WNW) 23:51:28 437.575/2403.000
M-CUBED/EXP-1 PRIME 28 Sep 23:43:34 23:47:37 62° 70° (ENE) 23:51:24 437.505
JAS-2 28 Sep 23:53:20 00:00:17 33° 93° (E) 00:06:53 435.910
ISS 28 Sep 23:57:58 00:00:04 16° 5° (N) 00:02:09 145.825
SPROUT 29 Sep 00:03:06 00:07:15 53° 73° (ENE) 00:11:25 437.525
TIGRISAT 29 Sep 00:03:24 00:07:19 32° 290° (WNW) 00:11:16 435.000
RS-15 29 Sep 00:05:23 00:14:57 26° 348° (NNW) 00:24:44 29.354- 29.394
BUGSAT 1 29 Sep 00:05:45 00:07:34 13° 91° (E) 00:09:23 437.445
DUCHIFAT 1 29 Sep 00:06:02 00:09:51 33° 97° (E) 00:13:39 145.980
QB50P1 29 Sep 00:09:11 00:13:12 42° 99° (E) 00:17:11 145.935-145.965
BEESAT 2 29 Sep 00:15:13 00:16:36 12° 108° (ESE) 00:17:58 435.950
AISAT 29 Sep 00:18:08 00:22:29 53° 260° (W) 00:26:51 437.250
SO-50 29 Sep 00:18:25 00:22:58 69° 240° (WSW) 00:27:24 436.795
UKube-1 29 Sep 00:19:08 00:23:27 74° 74° (ENE) 00:27:47 .
POPSAT HIP 1 29 Sep 00:22:41 00:26:52 59° 101° (ESE) 00:31:01 437.405
NANOSAT C BR1 29 Sep 00:38:15 00:42:29 86° 103° (ESE) 00:46:42 145.865
AUBIESAT-1 29 Sep 00:40:03 00:43:45 34° 256° (WSW) 00:47:14 437.475
UNISAT 6 29 Sep 00:46:08 00:47:56 12° 298° (WNW) 00:49:46 437.425
DX 1 29 Sep 00:50:10 00:54:15 39° 261° (W) 00:58:22 434.975-435.025
BEESAT 3 29 Sep 00:52:11 00:56:02 63° 119° (ESE) 00:59:56 437.485
50 SAT 29 Sep 00:58:43 01:01:03 16° 267° (W) 01:03:25 437.505
BEESAT 29 Sep 01:01:09 01:02:31 11° 59° (ENE) 01:03:53 436.000
QB50P2 29 Sep 01:02:55 01:06:56 44° 288° (WNW) 01:10:56 145.880/145.840
VELOX 1 29 Sep 01:03:02 01:06:16 20° 267° (W) 01:09:32 145.980
Oscar 19 29 Sep 01:03:33 01:05:53 13° 89° (E) 01:08:12 437.125/150
POLYITAN 1 29 Sep 01:05:07 01:09:07 44° 288° (WNW) 01:13:08 437.675
CUBEBUG 1 29 Sep 01:05:21 01:07:49 15° 269° (W) 01:10:18 437.445
TISAT 1 29 Sep 01:19:29 01:23:39 76° 76° (ENE) 01:27:50 437.305
M-CUBED/EXP-1 PRIME 29 Sep 01:21:26 01:22:22 11° 263° (W) 01:23:18 437.505
ISS 29 Sep 01:34:16 01:37:17 33° 25° (NNE) 01:40:18 145.825
Cosmos 2491 29 Sep 01:35:37 01:44:10 50° 75° (ENE) 01:52:38 435.465 / 435.565
JAS-2 29 Sep 01:37:54 01:45:31 55° 291° (WNW) 01:52:48 435.910
BUGSAT 1 29 Sep 01:39:20 01:43:13 49° 287° (WNW) 01:47:07 437.445
SPROUT 29 Sep 01:41:24 01:43:30 13° 269° (W) 01:45:36 437.525
DUCHIFAT 1 29 Sep 01:42:11 01:45:20 21° 293° (WNW) 01:48:29 145.980
QB50P1 29 Sep 01:45:51 01:48:39 17° 295° (WNW) 01:51:26 145.935-145.965
BEESAT 2 29 Sep 01:49:58 01:53:52 62° 305° (NW) 01:57:50 435.950
POPSAT HIP 1 29 Sep 02:00:11 02:02:09 13° 297° (WNW) 02:04:07 437.405
Gurwin Techsat 1B 29 Sep 02:08:29 02:12:58 27° 95° (E) 02:17:25 435.225
ITUPSAT 1 29 Sep 02:09:40 02:14:15 50° 71° (ENE) 02:18:53 437.325
MOZHAYETS 4 29 Sep 02:17:57 02:18:55 11° 59° (ENE) 02:19:53
SWISSCUBE 29 Sep 02:21:57 02:26:41 76° 75° (ENE) 02:31:29 437.505
RS-15 29 Sep 02:22:32 02:32:58 30° 23° (NNE) 02:43:20 29.354- 29.394
BEESAT 3 29 Sep 02:31:41 02:34:04 15° 318° (NW) 02:36:30 437.485
BEESAT 29 Sep 02:34:48 02:39:33 89° 263° (W) 02:44:21 436.000
YUBILEINY 29 Sep 02:35:03 02:43:18 48° 88° (E) 02:51:33 435.215
KKS-1 29 Sep 02:35:29 02:36:00 10° 59° (ENE) 02:36:32 437.445
Oscar 19 29 Sep 02:40:35 02:45:45 75° 286° (WNW) 02:50:52 437.125/150
AIST 2 29 Sep 02:45:45 02:48:30 17° 111° (ESE) 02:51:15 435.215
Cosmos 2504 29 Sep 02:48:16 02:52:54 18° 81° (E) 02:57:27 435.465 / 435.565
AO-7 29 Sep 03:05:20 03:10:29 17° 90° (E) 03:15:36 29.400- 29.500
STARS 29 Sep 03:06:01 03:06:26 10° 60° (ENE) 03:06:52 437.465
ISS 29 Sep 03:10:45 03:13:48 35° 222° (SW) 03:16:50 145.825
JAS-2 29 Sep 03:25:54 03:28:47 12° 311° (NW) 03:31:40 435.910
PCSat 29 Sep 03:32:49 03:37:10 25° 108° (ESE) 03:41:33 145.827
Cosmos 2491 29 Sep 03:32:54 03:40:42 37° 275° (W) 03:48:29 435.465 / 435.565
ITAMSAT 1 29 Sep 03:36:16 03:41:19 48° 99° (E) 03:46:21 435.822/435.867
CUBESAT XI-V 29 Sep 03:40:40 03:41:48 11° 59° (ENE) 03:42:57 437.345
Gurwin Techsat 1B 29 Sep 03:48:04 03:53:00 39° 291° (WNW) 03:57:54 435.225
ITUPSAT 1 29 Sep 03:49:11 03:52:22 18° 268° (W) 03:55:34 437.325
MOZHAYETS 4 29 Sep 03:50:46 03:55:20 88° 258° (WSW) 03:59:58
SWISSCUBE 29 Sep 04:03:31 04:05:01 11° 271° (W) 04:06:33 437.505
KKS-1 29 Sep 04:07:24 04:11:52 87° 261° (W) 04:16:20 437.445
AO-85 29 Sep 04:20:22 04:22:41 14° 37° (NE) 04:24:55 145.980
AIST 2 29 Sep 04:22:40 04:26:37 45° 308° (NW) 04:30:37 435.215
Oscar 19 29 Sep 04:23:30 04:24:09 10° 304° (WNW) 04:24:48 437.125/150
YUBILEINY 29 Sep 04:32:11 04:40:13 39° 288° (WNW) 04:48:17 435.215
RS-15 29 Sep 04:35:50 04:48:15 71° 52° (NE) 05:00:23 29.354- 29.394
STARS 29 Sep 04:37:42 04:42:06 86° 256° (WSW) 04:46:30 437.465
Cosmos 2504 29 Sep 04:38:01 04:45:25 76° 279° (W) 04:52:36 435.465 / 435.565
AO-7 29 Sep 04:55:58 05:04:19 87° 108° (ESE) 05:12:38 29.400- 29.500
CUSAT 1 29 Sep 05:04:59 05:11:33 29° 65° (ENE) 05:17:16 437.405
DANDE 29 Sep 05:05:26 05:10:29 17° 57° (ENE) 05:15:24 436.750
CUBESAT XI-V 29 Sep 05:13:43 05:18:25 90° 243° (WSW) 05:23:11 437.345
PCSat 29 Sep 05:15:04 05:20:16 47° 305° (NW) 05:25:32 145.827
ITAMSAT 1 29 Sep 05:16:27 05:20:28 23° 296° (WNW) 05:24:28 435.822/435.867
HORYU 2 29 Sep 05:18:44 05:22:19 23° 95° (E) 05:25:53 437.375
AIST 1 29 Sep 05:33:58 05:38:21 77° 278° (W) 05:42:45
